owner,sensor,date,latitude,longitude,vertical_datum,sea_water_temperature,qcFlag
Murphy,ioos:station:wmo:42877:1,2022-08-01T00:04:00Z,27.5560,-90.1050,9.8,30.4,11111222
Murphy,ioos:station:wmo:42877:1,2022-08-01T00:14:00Z,27.5560,-90.1050,10.0,30.4,11111222
Murphy,ioos:station:wmo:42877:1,2022-08-01T00:24:00Z,27.5560,-90.1050,9.9,30.4,11111222
Murphy,ioos:station:wmo:42877:1,2022-08-01T00:34:00Z,27.5560,-90.1050,9.8,30.4,11111222
Murphy,ioos:station:wmo:42877:1,2022-08-01T00:44:00Z,27.5560,-90.1050,9.8,30.4,11111222
Murphy,ioos:station:wmo:42877:1,2022-08-01T00:54:00Z,27.5560,-90.1050,9.8,30.4,11111222
Murphy,ioos:station:wmo:42877:1,2022-08-01T01:04:00Z,27.5560,-90.1050,9.8,30.4,11111222
Murphy,ioos:station:wmo:42877:1,2022-08-01T01:14:00Z,27.5560,-90.1050,9.8,30.4,11111222
Murphy,ioos:station:wmo:42877:1,2022-08-01T01:24:00Z,27.5560,-90.1050,9.8,30.4,11111222
Murphy,ioos:station:wmo:42877:1,2022-08-01T01:34:00Z,27.5560,-90.1050,9.8,30.4,11111222
Murphy,ioos:station:wmo:42877:1,2022-08-01T01:44:00Z,27.5560,-90.1050,9.9,30.4,11111222
Murphy,ioos:station:wmo:42877:1,2022-08-01T01:54:00Z,27.5560,-90.1050,9.9,30.4,11111222
Murphy,ioos:station:wmo:42877:1,2022-08-01T02:04:00Z,27.5560,-90.1050,9.9,30.4,11111222
Murphy,ioos:station:wmo:42877:1,2022-08-01T02:14:00Z,27.5560,-90.1050,9.9,30.4,11111222
Murphy,ioos:station:wmo:42877:1,2022-08-01T02:24:00Z,27.5560,-90.1050,9.9,30.4,11111222
Murphy,ioos:station:wmo:42877:1,2022-08-01T02:35:00Z,27.5560,-90.1050,9.9,30.4,11111222
Murphy,ioos:station:wmo:42877:1,2022-08-01T02:45:00Z,27.5560,-90.1050,9.9,30.4,11111222
Murphy,ioos:station:wmo:42877:1,2022-08-01T02:55:00Z,27.5560,-90.1050,9.9,30.5,11111222
Murphy,ioos:station:wmo:42877:1,2022-08-01T03:05:00Z,27.5560,-90.1050,9.9,30.5,11111222
Murphy,ioos:station:wmo:42877:1,2022-08-01T03:15:00Z,27.5560,-90.1050,9.9,30.5,11111222
Murphy,ioos:station:wmo:42877:1,2022-08-01T03:25:00Z,27.5560,-90.1050,9.9,30.5,11111222
Murphy,ioos:station:wmo:42877:1,2022-08-01T03:35:00Z,27.5560,-90.1050,9.9,30.5,11111222
Murphy,ioos:station:wmo:42877:1,2022-08-01T03:45:00Z,27.5560,-90.1050,9.9,30.4,11111222
Murphy,ioos:station:wmo:42877:1,2022-08-01T03:55:00Z,27.5560,-90.1050,9.9,30.4,11111222
Murphy,ioos:station:wmo:42877:1,2022-08-01T04:05:00Z,27.5560,-90.1050,9.9,30.4,11111222
Murphy,ioos:station:wmo:42877:1,2022-08-01T04:15:00Z,27.5560,-90.1050,9.9,30.4,11111222
Murphy,ioos:station:wmo:42877:1,2022-08-01T04:25:00Z,27.5560,-90.1050,9.9,30.4,11111222
Murphy,ioos:station:wmo:42877:1,2022-08-01T04:35:00Z,27.5560,-90.1050,9.9,30.4,11111222
Murphy,ioos:station:wmo:42877:1,2022-08-01T04:45:00Z,27.5560,-90.1050,9.9,30.4,11111222
Murphy,ioos:station:wmo:42877:1,2022-08-01T04:55:00Z,27.5560,-90.1050,9.9,30.4,11111222
Murphy,ioos:station:wmo:42877:1,2022-08-01T05:05:00Z,27.5560,-90.1050,9.9,30.4,11111222
Murphy,ioos:station:wmo:42877:1,2022-08-01T05:15:00Z,27.5560,-90.1050,9.8,30.4,11111222
Murphy,ioos:station:wmo:42877:1,2022-08-01T05:25:00Z,27.5560,-90.1050,9.8,30.4,11111222
Murphy,ioos:station:wmo:42877:1,2022-08-01T05:35:00Z,27.5560,-90.1050,9.8,30.5,11111222
Murphy,ioos:station:wmo:42877:1,2022-08-01T05:45:00Z,27.5560,-90.1050,9.8,30.4,11111222
Murphy,ioos:station:wmo:42877:1,2022-08-01T05:55:00Z,27.5560,-90.1050,9.8,30.5,11111222
Murphy,ioos:station:wmo:42877:1,2022-08-01T06:05:00Z,27.5560,-90.1050,9.8,30.5,11111222
Murphy,ioos:station:wmo:42877:1,2022-08-01T06:15:00Z,27.5560,-90.1050,9.8,30.5,11111222
Murphy,ioos:station:wmo:42877:1,2022-08-01T06:25:00Z,27.5560,-90.1050,9.8,30.4,11111222
Murphy,ioos:station:wmo:42877:1,2022-08-01T06:35:00Z,27.5560,-90.1050,9.8,30.5,11111222
Murphy,ioos:station:wmo:42877:1,2022-08-01T06:45:00Z,27.5560,-90.1050,9.8,30.5,11111222
Murphy,ioos:station:wmo:42877:1,2022-08-01T06:55:00Z,27.5560,-90.1050,9.8,30.5,11111222
Murphy,ioos:station:wmo:42877:1,2022-08-01T07:05:00Z,27.5560,-90.1050,9.8,30.5,11111222
Murphy,ioos:station:wmo:42877:1,2022-08-01T07:15:00Z,27.5560,-90.1050,9.8,30.5,11111222
Murphy,ioos:station:wmo:42877:1,2022-08-01T07:25:00Z,27.5560,-90.1050,9.8,30.5,11111222
Murphy,ioos:station:wmo:42877:1,2022-08-01T07:35:00Z,27.5560,-90.1050,9.8,30.4,11111222
Murphy,ioos:station:wmo:42877:1,2022-08-01T07:45:00Z,27.5560,-90.1050,9.8,30.4,11111222
Murphy,ioos:station:wmo:42877:1,2022-08-01T07:55:00Z,27.5560,-90.1050,9.8,30.4,11111222
Murphy,ioos:station:wmo:42877:1,2022-08-01T08:05:00Z,27.5560,-90.1050,10.0,30.4,11111222
Murphy,ioos:station:wmo:42877:1,2022-08-01T08:15:00Z,27.5560,-90.1050,10.1,30.4,11111222
Murphy,ioos:station:wmo:42877:1,2022-08-01T08:25:00Z,27.5560,-90.1050,10.1,30.4,11111222
Murphy,ioos:station:wmo:42877:1,2022-08-01T08:35:00Z,27.5560,-90.1050,10.1,30.4,11111222
Murphy,ioos:station:wmo:42877:1,2022-08-01T08:45:00Z,27.5560,-90.1050,10.1,30.4,11111222
Murphy,ioos:station:wmo:42877:1,2022-08-01T08:55:00Z,27.5560,-90.1050,10.0,30.4,11111222
Murphy,ioos:station:wmo:42877:1,2022-08-01T09:05:00Z,27.5560,-90.1050,9.8,30.4,11111222
Murphy,ioos:station:wmo:42877:1,2022-08-01T09:15:00Z,27.5560,-90.1050,9.8,30.4,11111222
Murphy,ioos:station:wmo:42877:1,2022-08-01T09:25:00Z,27.5560,-90.1050,9.8,30.4,11111222
Murphy,ioos:station:wmo:42877:1,2022-08-01T09:35:00Z,27.5560,-90.1050,9.8,30.4,11111222
Murphy,ioos:station:wmo:42877:1,2022-08-01T09:45:00Z,27.5560,-90.1050,9.8,30.4,11111222
Murphy,ioos:station:wmo:42877:1,2022-08-01T09:56:00Z,27.5560,-90.1050,9.8,30.4,11111222
Murphy,ioos:station:wmo:42877:1,2022-08-01T10:06:00Z,27.5560,-90.1050,9.8,30.4,11111222
Murphy,ioos:station:wmo:42877:1,2022-08-01T10:16:00Z,27.5560,-90.1050,9.8,30.4,11111222
Murphy,ioos:station:wmo:42877:1,2022-08-01T10:26:00Z,27.5560,-90.1050,9.8,30.4,11111222
Murphy,ioos:station:wmo:42877:1,2022-08-01T10:36:00Z,27.5560,-90.1050,9.8,30.4,11111222
Murphy,ioos:station:wmo:42877:1,2022-08-01T10:46:00Z,27.5560,-90.1050,9.8,30.4,11111222
Murphy,ioos:station:wmo:42877:1,2022-08-01T10:56:00Z,27.5560,-90.1050,9.8,30.4,11111222
Murphy,ioos:station:wmo:42877:1,2022-08-01T11:06:00Z,27.5560,-90.1050,9.8,30.4,11111222
Murphy,ioos:station:wmo:42877:1,2022-08-01T11:16:00Z,27.5560,-90.1050,9.7,30.4,11111222
Murphy,ioos:station:wmo:42877:1,2022-08-01T11:26:00Z,27.5560,-90.1050,9.8,30.4,11111222
Murphy,ioos:station:wmo:42877:1,2022-08-01T11:36:00Z,27.5560,-90.1050,9.7,30.4,11111222
Murphy,ioos:station:wmo:42877:1,2022-08-01T11:46:00Z,27.5560,-90.1050,9.7,30.4,11111222
Murphy,ioos:station:wmo:42877:1,2022-08-01T11:56:00Z,27.5560,-90.1050,9.7,30.3,11111222
Murphy,ioos:station:wmo:42877:1,2022-08-01T12:06:00Z,27.5560,-90.1050,9.6,30.4,11111222
Murphy,ioos:station:wmo:42877:1,2022-08-01T12:16:00Z,27.5560,-90.1050,9.6,30.4,11111222
Murphy,ioos:station:wmo:42877:1,2022-08-01T12:26:00Z,27.5560,-90.1050,9.6,30.4,11111222
Murphy,ioos:station:wmo:42877:1,2022-08-01T12:36:00Z,27.5560,-90.1050,9.6,30.4,11111222
Murphy,ioos:station:wmo:42877:1,2022-08-01T12:46:00Z,27.5560,-90.1050,9.6,30.3,11111222
Murphy,ioos:station:wmo:42877:1,2022-08-01T12:56:00Z,27.5560,-90.1050,9.6,30.3,11111222
Murphy,ioos:station:wmo:42877:1,2022-08-01T13:06:00Z,27.5560,-90.1050,9.6,30.4,11111222
Murphy,ioos:station:wmo:42877:1,2022-08-01T13:16:00Z,27.5560,-90.1050,9.6,30.4,11111222
Murphy,ioos:station:wmo:42877:1,2022-08-01T13:26:00Z,27.5560,-90.1050,9.6,30.4,11111222
Murphy,ioos:station:wmo:42877:1,2022-08-01T13:36:00Z,27.5560,-90.1050,9.6,30.4,11111222
Murphy,ioos:station:wmo:42877:1,2022-08-01T13:46:00Z,27.5560,-90.1050,9.5,30.4,11111222
Murphy,ioos:station:wmo:42877:1,2022-08-01T13:56:00Z,27.5560,-90.1050,9.6,30.4,11111222
Murphy,ioos:station:wmo:42877:1,2022-08-01T14:06:00Z,27.5560,-90.1050,9.6,30.4,11111222
Murphy,ioos:station:wmo:42877:1,2022-08-01T14:16:00Z,27.5560,-90.1050,9.5,30.4,11111222
Murphy,ioos:station:wmo:42877:1,2022-08-01T14:26:00Z,27.5560,-90.1050,9.5,30.4,11111222
Murphy,ioos:station:wmo:42877:1,2022-08-01T14:36:00Z,27.5560,-90.1050,9.5,30.4,11111222
Murphy,ioos:station:wmo:42877:1,2022-08-01T14:46:00Z,27.5560,-90.1050,9.5,30.4,11111222
Murphy,ioos:station:wmo:42877:1,2022-08-01T14:56:00Z,27.5560,-90.1050,9.5,30.4,11111222
Murphy,ioos:station:wmo:42877:1,2022-08-01T15:06:00Z,27.5560,-90.1050,9.5,30.4,11111222
Murphy,ioos:station:wmo:42877:1,2022-08-01T15:16:00Z,27.5560,-90.1050,9.4,30.4,11111222
Murphy,ioos:station:wmo:42877:1,2022-08-01T15:26:00Z,27.5560,-90.1050,9.4,30.4,11111222
Murphy,ioos:station:wmo:42877:1,2022-08-01T15:36:00Z,27.5560,-90.1050,9.4,30.4,11111222
Murphy,ioos:station:wmo:42877:1,2022-08-01T15:46:00Z,27.5560,-90.1050,9.3,30.4,11111222
Murphy,ioos:station:wmo:42877:1,2022-08-01T15:56:00Z,27.5560,-90.1050,9.3,30.4,11111222
Murphy,ioos:station:wmo:42877:1,2022-08-01T16:06:00Z,27.5560,-90.1050,9.3,30.4,11111222
Murphy,ioos:station:wmo:42877:1,2022-08-01T16:16:00Z,27.5560,-90.1050,9.3,30.4,11111222
Murphy,ioos:station:wmo:42877:1,2022-08-01T16:26:00Z,27.5560,-90.1050,9.3,30.4,11111222
Murphy,ioos:station:wmo:42877:1,2022-08-01T16:36:00Z,27.5560,-90.1050,9.5,30.4,11111222
Murphy,ioos:station:wmo:42877:1,2022-08-01T16:46:00Z,27.5560,-90.1050,9.5,30.4,11111222
Murphy,ioos:station:wmo:42877:1,2022-08-01T16:56:00Z,27.5560,-90.1050,9.5,30.3,11111222
Murphy,ioos:station:wmo:42877:1,2022-08-01T17:06:00Z,27.5560,-90.1050,9.5,30.3,11111222
Murphy,ioos:station:wmo:42877:1,2022-08-01T17:17:00Z,27.5560,-90.1050,9.4,30.4,11111222
Murphy,ioos:station:wmo:42877:1,2022-08-01T17:27:00Z,27.5560,-90.1050,9.4,30.3,11111222
Murphy,ioos:station:wmo:42877:1,2022-08-01T17:37:00Z,27.5560,-90.1050,9.4,30.3,11111222
Murphy,ioos:station:wmo:42877:1,2022-08-01T17:47:00Z,27.5560,-90.1050,9.4,30.3,11111222
Murphy,ioos:station:wmo:42877:1,2022-08-01T17:57:00Z,27.5560,-90.1050,9.4,30.3,11111222
Murphy,ioos:station:wmo:42877:1,2022-08-01T18:07:00Z,27.5560,-90.1050,9.4,30.3,11111222
Murphy,ioos:station:wmo:42877:1,2022-08-01T18:17:00Z,27.5560,-90.1050,9.5,30.3,11111222
Murphy,ioos:station:wmo:42877:1,2022-08-01T18:27:00Z,27.5560,-90.1050,9.4,30.3,11111222
Murphy,ioos:station:wmo:42877:1,2022-08-01T18:37:00Z,27.5560,-90.1050,9.2,30.4,11111222
Murphy,ioos:station:wmo:42877:1,2022-08-01T18:47:00Z,27.5560,-90.1050,9.2,30.4,11111222
Murphy,ioos:station:wmo:42877:1,2022-08-01T18:57:00Z,27.5560,-90.1050,9.2,30.4,11111222
Murphy,ioos:station:wmo:42877:1,2022-08-01T19:07:00Z,27.5560,-90.1050,9.2,30.4,11111222
Murphy,ioos:station:wmo:42877:1,2022-08-01T19:17:00Z,27.5560,-90.1050,9.2,30.4,11111222
Murphy,ioos:station:wmo:42877:1,2022-08-01T19:27:00Z,27.5560,-90.1050,9.2,30.4,11111222
Murphy,ioos:station:wmo:42877:1,2022-08-01T19:37:00Z,27.5560,-90.1050,9.2,30.4,11111222
Murphy,ioos:station:wmo:42877:1,2022-08-01T19:47:00Z,27.5560,-90.1050,9.2,30.4,11111222
Murphy,ioos:station:wmo:42877:1,2022-08-01T19:57:00Z,27.5560,-90.1050,9.2,30.4,11111222
Murphy,ioos:station:wmo:42877:1,2022-08-01T20:07:00Z,27.5560,-90.1050,9.2,30.4,11111222
Murphy,ioos:station:wmo:42877:1,2022-08-01T20:17:00Z,27.5560,-90.1050,9.2,30.4,11111222
Murphy,ioos:station:wmo:42877:1,2022-08-01T20:27:00Z,27.5560,-90.1050,9.2,30.4,11111222
Murphy,ioos:station:wmo:42877:1,2022-08-01T20:37:00Z,27.5560,-90.1050,9.2,30.4,11111222
Murphy,ioos:station:wmo:42877:1,2022-08-01T20:47:00Z,27.5560,-90.1050,9.2,30.4,11111222
Murphy,ioos:station:wmo:42877:1,2022-08-01T20:57:00Z,27.5560,-90.1050,9.3,30.4,11111222
Murphy,ioos:station:wmo:42877:1,2022-08-01T21:07:00Z,27.5560,-90.1050,9.4,30.4,11111222
Murphy,ioos:station:wmo:42877:1,2022-08-01T21:17:00Z,27.5560,-90.1050,9.3,30.4,11111222
Murphy,ioos:station:wmo:42877:1,2022-08-01T21:27:00Z,27.5560,-90.1050,9.1,30.4,11111222
Murphy,ioos:station:wmo:42877:1,2022-08-01T21:37:00Z,27.5560,-90.1050,9.1,30.5,11111222
Murphy,ioos:station:wmo:42877:1,2022-08-01T21:47:00Z,27.5560,-90.1050,9.1,30.4,11111222
Murphy,ioos:station:wmo:42877:1,2022-08-01T21:57:00Z,27.5560,-90.1050,9.1,30.4,11111222
Murphy,ioos:station:wmo:42877:1,2022-08-01T22:07:00Z,27.5560,-90.1050,9.1,30.4,11111222
Murphy,ioos:station:wmo:42877:1,2022-08-01T22:17:00Z,27.5560,-90.1050,9.1,30.4,11111222
Murphy,ioos:station:wmo:42877:1,2022-08-01T22:27:00Z,27.5560,-90.1050,9.1,30.4,11111222
Murphy,ioos:station:wmo:42877:1,2022-08-01T22:37:00Z,27.5560,-90.1050,9.2,30.4,11111222
Murphy,ioos:station:wmo:42877:1,2022-08-01T22:47:00Z,27.5560,-90.1050,9.2,30.4,11111222
Murphy,ioos:station:wmo:42877:1,2022-08-01T22:57:00Z,27.5560,-90.1050,9.2,30.4,11111222
Murphy,ioos:station:wmo:42877:1,2022-08-01T23:07:00Z,27.5560,-90.1050,9.2,30.4,11111222
Murphy,ioos:station:wmo:42877:1,2022-08-01T23:17:00Z,27.5560,-90.1050,9.2,30.4,11111222
Murphy,ioos:station:wmo:42877:1,2022-08-01T23:27:00Z,27.5560,-90.1050,9.2,30.4,11111222
Murphy,ioos:station:wmo:42877:1,2022-08-01T23:37:00Z,27.5560,-90.1050,9.3,30.4,11111222
Murphy,ioos:station:wmo:42877:1,2022-08-01T23:47:00Z,27.5560,-90.1050,9.3,30.4,11111222
Murphy,ioos:station:wmo:42877:1,2022-08-01T23:57:00Z,27.5560,-90.1050,9.3,30.4,11111222
Murphy,ioos:station:wmo:42877:1,2022-08-02T00:07:00Z,27.5560,-90.1050,9.3,30.4,11111222
Murphy,ioos:station:wmo:42877:1,2022-08-02T00:17:00Z,27.5560,-90.1050,9.3,30.4,11111222
Murphy,ioos:station:wmo:42877:1,2022-08-02T00:27:00Z,27.5560,-90.1050,9.3,30.4,11111222
Murphy,ioos:station:wmo:42877:1,2022-08-02T00:38:00Z,27.5560,-90.1050,9.3,30.4,11111222
Murphy,ioos:station:wmo:42877:1,2022-08-02T00:48:00Z,27.5560,-90.1050,9.4,30.4,11111222
Murphy,ioos:station:wmo:42877:1,2022-08-02T00:58:00Z,27.5560,-90.1050,9.4,30.4,11111222
Murphy,ioos:station:wmo:42877:1,2022-08-02T01:08:00Z,27.5560,-90.1050,9.5,30.4,11111222
Murphy,ioos:station:wmo:42877:1,2022-08-02T01:18:00Z,27.5560,-90.1050,9.5,30.4,11111222
Murphy,ioos:station:wmo:42877:1,2022-08-02T01:28:00Z,27.5560,-90.1050,9.5,30.4,11111222
Murphy,ioos:station:wmo:42877:1,2022-08-02T01:38:00Z,27.5560,-90.1050,9.6,30.4,11111222
Murphy,ioos:station:wmo:42877:1,2022-08-02T01:48:00Z,27.5560,-90.1050,9.5,30.4,11111222
Murphy,ioos:station:wmo:42877:1,2022-08-02T01:58:00Z,27.5560,-90.1050,9.5,30.4,11111222
Murphy,ioos:station:wmo:42877:1,2022-08-02T02:08:00Z,27.5560,-90.1050,9.6,30.3,11111222
Murphy,ioos:station:wmo:42877:1,2022-08-02T02:18:00Z,27.5560,-90.1050,9.6,30.3,11111222
Murphy,ioos:station:wmo:42877:1,2022-08-02T02:28:00Z,27.5560,-90.1050,9.6,30.3,11111222
Murphy,ioos:station:wmo:42877:1,2022-08-02T02:38:00Z,27.5560,-90.1050,9.6,30.3,11111222
Murphy,ioos:station:wmo:42877:1,2022-08-02T02:48:00Z,27.5560,-90.1050,9.6,30.3,11111222
Murphy,ioos:station:wmo:42877:1,2022-08-02T02:58:00Z,27.5560,-90.1050,9.7,30.4,11111222
Murphy,ioos:station:wmo:42877:1,2022-08-02T03:08:00Z,27.5560,-90.1050,9.7,30.4,11111222
Murphy,ioos:station:wmo:42877:1,2022-08-02T03:18:00Z,27.5560,-90.1050,9.7,30.4,11111222
Murphy,ioos:station:wmo:42877:1,2022-08-02T03:28:00Z,27.5560,-90.1050,9.7,30.4,11111222
Murphy,ioos:station:wmo:42877:1,2022-08-02T03:38:00Z,27.5560,-90.1050,9.7,30.4,11111222
Murphy,ioos:station:wmo:42877:1,2022-08-02T03:48:00Z,27.5560,-90.1050,9.7,30.4,11111222
Murphy,ioos:station:wmo:42877:1,2022-08-02T03:58:00Z,27.5560,-90.1050,9.8,30.3,11111222
Murphy,ioos:station:wmo:42877:1,2022-08-02T04:08:00Z,27.5560,-90.1050,9.7,30.4,11111222
Murphy,ioos:station:wmo:42877:1,2022-08-02T04:18:00Z,27.5560,-90.1050,9.7,30.4,11111222
Murphy,ioos:station:wmo:42877:1,2022-08-02T04:28:00Z,27.5560,-90.1050,9.7,30.4,11111222
Murphy,ioos:station:wmo:42877:1,2022-08-02T04:38:00Z,27.5560,-90.1050,9.7,30.4,11111222
Murphy,ioos:station:wmo:42877:1,2022-08-02T04:48:00Z,27.5560,-90.1050,9.7,30.4,11111222
Murphy,ioos:station:wmo:42877:1,2022-08-02T04:58:00Z,27.5560,-90.1050,9.7,30.4,11111222
Murphy,ioos:station:wmo:42877:1,2022-08-02T05:08:00Z,27.5560,-90.1050,9.7,30.4,11111222
Murphy,ioos:station:wmo:42877:1,2022-08-02T05:18:00Z,27.5560,-90.1050,9.8,30.4,11111222
Murphy,ioos:station:wmo:42877:1,2022-08-02T05:28:00Z,27.5560,-90.1050,9.8,30.4,11111222
Murphy,ioos:station:wmo:42877:1,2022-08-02T05:38:00Z,27.5560,-90.1050,9.8,30.4,11111222
Murphy,ioos:station:wmo:42877:1,2022-08-02T05:48:00Z,27.5560,-90.1050,9.8,30.4,11111222
Murphy,ioos:station:wmo:42877:1,2022-08-02T05:58:00Z,27.5560,-90.1050,9.8,30.4,11111222
Murphy,ioos:station:wmo:42877:1,2022-08-02T06:08:00Z,27.5560,-90.1050,9.8,30.4,11111222
Murphy,ioos:station:wmo:42877:1,2022-08-02T06:18:00Z,27.5560,-90.1050,9.7,30.4,11111222
Murphy,ioos:station:wmo:42877:1,2022-08-02T06:28:00Z,27.5560,-90.1050,9.7,30.4,11111222
Murphy,ioos:station:wmo:42877:1,2022-08-02T06:38:00Z,27.5560,-90.1050,9.7,30.4,11111222
Murphy,ioos:station:wmo:42877:1,2022-08-02T06:48:00Z,27.5560,-90.1050,9.7,30.4,11111222
Murphy,ioos:station:wmo:42877:1,2022-08-02T06:58:00Z,27.5560,-90.1050,9.7,30.4,11111222
Murphy,ioos:station:wmo:42877:1,2022-08-02T07:08:00Z,27.5560,-90.1050,9.7,30.4,11111222
Murphy,ioos:station:wmo:42877:1,2022-08-02T07:18:00Z,27.5560,-90.1050,9.7,30.4,11111222
Murphy,ioos:station:wmo:42877:1,2022-08-02T07:28:00Z,27.5560,-90.1050,9.7,30.4,11111222
Murphy,ioos:station:wmo:42877:1,2022-08-02T07:38:00Z,27.5560,-90.1050,9.7,30.4,11111222
Murphy,ioos:station:wmo:42877:1,2022-08-02T07:49:00Z,27.5560,-90.1050,9.7,30.4,11111222
Murphy,ioos:station:wmo:42877:1,2022-08-02T07:59:00Z,27.5560,-90.1050,9.7,30.4,11111222
Murphy,ioos:station:wmo:42877:1,2022-08-02T08:09:00Z,27.5560,-90.1050,9.7,30.4,11111222
Murphy,ioos:station:wmo:42877:1,2022-08-02T08:19:00Z,27.5560,-90.1050,9.7,30.4,11111222
Murphy,ioos:station:wmo:42877:1,2022-08-02T08:29:00Z,27.5560,-90.1050,9.7,30.4,11111222
Murphy,ioos:station:wmo:42877:1,2022-08-02T08:39:00Z,27.5560,-90.1050,9.7,30.4,11111222
Murphy,ioos:station:wmo:42877:1,2022-08-02T08:49:00Z,27.5560,-90.1050,9.7,30.4,11111222
Murphy,ioos:station:wmo:42877:1,2022-08-02T08:59:00Z,27.5560,-90.1050,9.7,30.4,11111222
Murphy,ioos:station:wmo:42877:1,2022-08-02T09:09:00Z,27.5560,-90.1050,9.7,30.5,11111222
Murphy,ioos:station:wmo:42877:1,2022-08-02T09:19:00Z,27.5560,-90.1050,9.7,30.4,11111222
Murphy,ioos:station:wmo:42877:1,2022-08-02T09:29:00Z,27.5560,-90.1050,9.7,30.5,11111222
Murphy,ioos:station:wmo:42877:1,2022-08-02T09:39:00Z,27.5560,-90.1050,9.7,30.5,11111222
Murphy,ioos:station:wmo:42877:1,2022-08-02T09:49:00Z,27.5560,-90.1050,9.7,30.5,11111222
Murphy,ioos:station:wmo:42877:1,2022-08-02T09:59:00Z,27.5560,-90.1050,9.7,30.5,11111222
Murphy,ioos:station:wmo:42877:1,2022-08-02T10:09:00Z,27.5560,-90.1050,9.7,30.5,11111222
Murphy,ioos:station:wmo:42877:1,2022-08-02T10:19:00Z,27.5560,-90.1050,9.7,30.5,11111222
Murphy,ioos:station:wmo:42877:1,2022-08-02T10:29:00Z,27.5560,-90.1050,9.7,30.5,11111222
Murphy,ioos:station:wmo:42877:1,2022-08-02T10:39:00Z,27.5560,-90.1050,9.7,30.5,11111222
Murphy,ioos:station:wmo:42877:1,2022-08-02T10:49:00Z,27.5560,-90.1050,9.7,30.4,11111222
Murphy,ioos:station:wmo:42877:1,2022-08-02T10:59:00Z,27.5560,-90.1050,9.7,30.4,11111222
Murphy,ioos:station:wmo:42877:1,2022-08-02T11:09:00Z,27.5560,-90.1050,9.7,30.4,11111222
Murphy,ioos:station:wmo:42877:1,2022-08-02T11:19:00Z,27.5560,-90.1050,9.6,30.4,11111222
Murphy,ioos:station:wmo:42877:1,2022-08-02T11:29:00Z,27.5560,-90.1050,9.6,30.4,11111222
Murphy,ioos:station:wmo:42877:1,2022-08-02T11:39:00Z,27.5560,-90.1050,9.6,30.4,11111222
Murphy,ioos:station:wmo:42877:1,2022-08-02T11:49:00Z,27.5560,-90.1050,9.6,30.4,11111222
Murphy,ioos:station:wmo:42877:1,2022-08-02T11:59:00Z,27.5560,-90.1050,9.6,30.4,11111222
Murphy,ioos:station:wmo:42877:1,2022-08-02T12:09:00Z,27.5560,-90.1050,9.6,30.4,11111222
Murphy,ioos:station:wmo:42877:1,2022-08-02T12:19:00Z,27.5560,-90.1050,9.7,30.4,11111222
Murphy,ioos:station:wmo:42877:1,2022-08-02T12:29:00Z,27.5560,-90.1050,9.7,30.4,11111222
Murphy,ioos:station:wmo:42877:1,2022-08-02T12:39:00Z,27.5560,-90.1050,9.7,30.4,11111222
Murphy,ioos:station:wmo:42877:1,2022-08-02T12:49:00Z,27.5560,-90.1050,9.7,30.4,11111222
Murphy,ioos:station:wmo:42877:1,2022-08-02T12:59:00Z,27.5560,-90.1050,9.7,30.4,11111222
Murphy,ioos:station:wmo:42877:1,2022-08-02T13:09:00Z,27.5560,-90.1050,9.7,30.4,11111222
Murphy,ioos:station:wmo:42877:1,2022-08-02T13:19:00Z,27.5560,-90.1050,9.7,30.4,11111222
Murphy,ioos:station:wmo:42877:1,2022-08-02T13:29:00Z,27.5560,-90.1050,9.6,30.4,11111222
Murphy,ioos:station:wmo:42877:1,2022-08-02T13:39:00Z,27.5560,-90.1050,9.5,30.4,11111222
Murphy,ioos:station:wmo:42877:1,2022-08-02T13:49:00Z,27.5560,-90.1050,9.5,30.4,11111222
Murphy,ioos:station:wmo:42877:1,2022-08-02T13:59:00Z,27.5560,-90.1050,9.5,30.4,11111222
Murphy,ioos:station:wmo:42877:1,2022-08-02T14:09:00Z,27.5560,-90.1050,9.5,30.4,11111222
Murphy,ioos:station:wmo:42877:1,2022-08-02T14:19:00Z,27.5560,-90.1050,9.6,30.4,11111222
Murphy,ioos:station:wmo:42877:1,2022-08-02T14:29:00Z,27.5560,-90.1050,9.6,30.4,11111222
Murphy,ioos:station:wmo:42877:1,2022-08-02T14:39:00Z,27.5560,-90.1050,9.5,30.4,11111222
Murphy,ioos:station:wmo:42877:1,2022-08-02T14:49:00Z,27.5560,-90.1050,9.5,30.4,11111222
Murphy,ioos:station:wmo:42877:1,2022-08-02T14:59:00Z,27.5560,-90.1050,9.5,30.4,11111222
Murphy,ioos:station:wmo:42877:1,2022-08-02T15:10:00Z,27.5560,-90.1050,9.5,30.4,11111222
Murphy,ioos:station:wmo:42877:1,2022-08-02T15:20:00Z,27.5560,-90.1050,9.5,30.4,11111222
Murphy,ioos:station:wmo:42877:1,2022-08-02T15:30:00Z,27.5560,-90.1050,9.5,30.4,11111222
Murphy,ioos:station:wmo:42877:1,2022-08-02T15:40:00Z,27.5560,-90.1050,9.4,30.4,11111222
Murphy,ioos:station:wmo:42877:1,2022-08-02T15:50:00Z,27.5560,-90.1050,9.5,30.4,11111222
Murphy,ioos:station:wmo:42877:1,2022-08-02T16:00:00Z,27.5560,-90.1050,9.4,30.4,11111222
Murphy,ioos:station:wmo:42877:1,2022-08-02T16:10:00Z,27.5560,-90.1050,9.4,30.3,11111222
Murphy,ioos:station:wmo:42877:1,2022-08-02T16:20:00Z,27.5560,-90.1050,9.4,30.3,11111222
Murphy,ioos:station:wmo:42877:1,2022-08-02T16:30:00Z,27.5560,-90.1050,9.4,30.3,11111222
Murphy,ioos:station:wmo:42877:1,2022-08-02T16:40:00Z,27.5560,-90.1050,9.5,30.3,11111222
Murphy,ioos:station:wmo:42877:1,2022-08-02T16:50:00Z,27.5560,-90.1050,9.5,30.3,11111222
Murphy,ioos:station:wmo:42877:1,2022-08-02T17:00:00Z,27.5560,-90.1050,9.5,30.3,11111222
Murphy,ioos:station:wmo:42877:1,2022-08-02T17:10:00Z,27.5560,-90.1050,9.6,30.3,11111222
Murphy,ioos:station:wmo:42877:1,2022-08-02T17:20:00Z,27.5560,-90.1050,9.5,30.3,11111222
Murphy,ioos:station:wmo:42877:1,2022-08-02T17:30:00Z,27.5560,-90.1050,9.6,30.3,11111222
Murphy,ioos:station:wmo:42877:1,2022-08-02T17:40:00Z,27.5560,-90.1050,9.6,30.3,11111222
Murphy,ioos:station:wmo:42877:1,2022-08-02T17:50:00Z,27.5560,-90.1050,9.6,30.4,11111222
Murphy,ioos:station:wmo:42877:1,2022-08-02T18:00:00Z,27.5560,-90.1050,9.6,30.4,11111222
Murphy,ioos:station:wmo:42877:1,2022-08-02T18:10:00Z,27.5560,-90.1050,9.6,30.4,11111222
Murphy,ioos:station:wmo:42877:1,2022-08-02T18:20:00Z,27.5560,-90.1050,9.6,30.4,11111222
Murphy,ioos:station:wmo:42877:1,2022-08-02T18:30:00Z,27.5560,-90.1050,9.5,30.4,11111222
Murphy,ioos:station:wmo:42877:1,2022-08-02T18:40:00Z,27.5560,-90.1050,9.6,30.4,11111222
Murphy,ioos:station:wmo:42877:1,2022-08-02T18:50:00Z,27.5560,-90.1050,9.6,30.4,11111222
Murphy,ioos:station:wmo:42877:1,2022-08-02T19:00:00Z,27.5560,-90.1050,9.6,30.4,11111222
Murphy,ioos:station:wmo:42877:1,2022-08-02T19:10:00Z,27.5560,-90.1050,9.7,30.4,11111222
Murphy,ioos:station:wmo:42877:1,2022-08-02T19:20:00Z,27.5560,-90.1050,9.7,30.4,11111222
Murphy,ioos:station:wmo:42877:1,2022-08-02T19:30:00Z,27.5560,-90.1050,9.5,30.3,11111222
Murphy,ioos:station:wmo:42877:1,2022-08-02T19:40:00Z,27.5560,-90.1050,9.6,30.3,11111222
Murphy,ioos:station:wmo:42877:1,2022-08-02T19:50:00Z,27.5560,-90.1050,9.6,30.4,11111222
Murphy,ioos:station:wmo:42877:1,2022-08-02T20:00:00Z,27.5560,-90.1050,9.6,30.4,11111222
Murphy,ioos:station:wmo:42877:1,2022-08-02T20:10:00Z,27.5560,-90.1050,9.6,30.4,11111222
Murphy,ioos:station:wmo:42877:1,2022-08-02T20:20:00Z,27.5560,-90.1050,9.6,30.3,11111222
Murphy,ioos:station:wmo:42877:1,2022-08-02T20:30:00Z,27.5560,-90.1050,9.6,30.4,11111222
Murphy,ioos:station:wmo:42877:1,2022-08-02T20:40:00Z,27.5560,-90.1050,9.5,30.4,11111222